416P/Scotti (2021)

Japanese version
Home page
Updated on February 20, 2021

---------------------------------------------------------------------

* Profile

Designation 416P/2021 A8
Recovery Date January 14, 2021
Magnitude 19.8 mag
Recoverer E. Schwab (Egelsbach, Germany)

* Pictures

* Orbital Elements

Epoch 2021 Mar. 7.0 TT = JDT 2459280.5
T 2021 Feb. 15.49847 TT                                 Rudenko
q   2.1899476            (2000.0)            P               Q
n   0.12256436     Peri.  134.52742     -0.64740403     -0.76213496
a   4.0138387      Node   355.81200     +0.68157706     -0.57644088
e   0.4544007      Incl.    3.36125     +0.34105827     -0.29473076
P   8.04
From 108 observations 2013 Jan. 6-2021 Jan. 17, mean residual 0".5.

* Magnitudes Graph

        m1 = 12.5 + 5 log d + 20.0 log r

---------------------------------------------------------------------

The orbital elements are published on M.P.E.C. 2021-B143.
The magnitudes graphs are made with Comet for Windows.

---------------------------------------------------------------------

Copyright(C) Seiichi Yoshida (comet@aerith.net). All rights reserved.